Weather in Scaleta

Greece     35°23′23″N   24°36′51″E
temp.,
°C
wind,
m/s
gust,
m/s
humid.,
%
clouds,
%
prec.,
mm/h
press.,
hPa
HPBL,
m
13 april, tue
tue1300:00+15se214699 0.0 1022180
03:00+15se114395 0.0 1021182
06:00+15s224325 0.0 1020148
09:00+15ssw22495 0.0 1020172
12:00+16n22485 0.0 1020134
15:00+17ne21435 0.0 1019132
18:00+17nne32505 0.0 1018198
21:00+16se4558100 0.0 1018126
14 april, wed
wed1400:00+16s5559100 0.0 1018119
03:00+16ssw566157 0.0 1017133
06:00+16ssw55625 0.0 1016129
09:00+16s44615 0.0 101692
12:00+17ene335962 0.0 101680
15:00+17nne4562100 0.0 1016134
18:00+17ne4569100 0.0 1015136
21:00+17e337225 0.0 101541
15 april, thu
thu1500:00+16sse11730 0.0 101619
03:00+16w12750 0.0 101564
06:00+15wnw227431 0.0 1015164
09:00+16wnw33710 0.0 1016222
12:00+16nw54685 0.0 1016257
15:00+15wnw5565100 0.0 1016339
18:00+15wnw5665100 0.0 1015420
21:00+15wnw4567100 0.0 1016529
16 april, fri
fri1600:00+15wnw3467100 0.0 1016404
03:00+15nw2365100 0.0 1015334
06:00+15e22625 0.0 1014203
09:00+15ne22615 0.0 1016251
12:00+15nne436895 0.0 1016299
15:00+16ene5575100 0.0 1016321
18:00+16ene7776100 0.0 1015446
21:00+16ene6778100 0.0 1014394
17 april, sat
sat1700:00+16n3581100 0.1 1016307
03:00+16e5680100 0.2 1013269
06:00+16e7878100 0.0 1010256
09:00+17ene677662 0.0 1009164
12:00+18e1468100 0.0 100851
15:00+21ssw6958100 0.0 100673
18:00+18wnw6874100 0.0 1006104
21:00+17wnw4482100 0.0 100762